Regional Weather Roundup
Issued by NWS

Home | Current Version | Previous Version | Graphics & Text | Print | Product List | Glossary On
Versions: 1 2 3 4 5 6 7 8 9 10 11 12 13 14 15 16 17 18 19 20 21 22 23 24 25 26 27 28 29 30 31 32 33 34 35 36 37 38 39 40 41 42 43 44 45 46 47 48 49 50
000
ASUS43 KIND 251009
RWRIN

WEATHER ROUNDUP FOR INDIANA
NATIONAL WEATHER SERVICE INDIANAPOLIS IN
600 AM EDT MON SEP 25 2017

NOTE: "FAIR" INDICATES FEW OR NO CLOUDS BELOW 12,000 FEET WITH NO
SIGNIFICANT WEATHER AND/OR OBSTRUCTIONS TO VISIBILITY.

* - STATION DOES NOT REPORT WEATHER SUCH AS PRECIPITATION OR FOG.

+ - STATION NOT QUALITY CONTROLLED BY THE NATIONAL WEATHER SERVICE.
    USE DATA WITH CAUTION...ESPECIALLY DEWPOINT AND RELATIVE
    HUMIDITY OBSERVATIONS.

INZ001>003-010>013-019-020-251100-
NORTHWEST INDIANA

CITY           SKY/WX    TMP DP  RH WIND       PRES   REMARKS
GARY /AIRPORT/ PTCLDY    61  59  94 CALM      30.02R
KNOX *+        CLEAR     59  55  88 CALM      30.03S
LA PORTE +     CLEAR     59  57  94 CALM      30.04S
MICHIGAN CITY+ CLOUDY    63  57  82 CALM      30.03S
MONTICELLO +   CLEAR     61  60  95 CALM      30.02S
RENSSELAER +   CLEAR     63  54  72 CALM      30.03S
VALPARAISO     CLEAR     61  58  90 E3        30.03S

$$

LMZ046-743>745-251100-
SOUTHERN LAKE MICHIGAN

STATION/POSITION TIME  TEMP    WIND        PRES    WAVE
                       AIR SEA DIR/SP/G            HT
                 (UTC) (F)     (DEG/KT/KT) (MB)    (FT)
BURNS HARBOR     0940   73     180/  6/  9 1016.3F
MICHIGAN CITY    0940   69     130/  9/ 10   N/A
5NW MICH CITY    1000   71 72  160/  8/ 12   N/A     1

$$

INZ004-005-014>016-021>024-251100-
NORTH CENTRAL INDIANA

CITY           SKY/WX    TMP DP  RH WIND       PRES   REMARKS
GOSHEN         CLEAR     59  56  89 CALM      30.05S
LOGANSPORT +   CLEAR     55  54  94 CALM      30.04S
PERU/GRISSOM   CLEAR     62  56  80 SE3       30.03S
SOUTH BEND     CLEAR     64  60  87 E3        30.04F
WARSAW +       CLEAR     57  57 100 CALM      30.05S

$$

INZ006>009-017-018-025>027-251100-
NORTHEAST INDIANA

CITY           SKY/WX    TMP DP  RH WIND       PRES   REMARKS
AUBURN +         N/A     61  59  94 CALM      30.06S FOG
FORT WAYNE     PTCLDY    61  57  87 CALM      30.06S
HUNTINGTON +   CLEAR     59  58  96 CALM      30.05S
KENDALLVILLE +   N/A     62  62 100 CALM      30.06F FOG

$$

INZ028-029-035-036-043>045-051>053-251100-
WEST CENTRAL INDIANA

CITY           SKY/WX    TMP DP  RH WIND       PRES   REMARKS
CRAWFORDSVL +  CLEAR     55  55 100 CALM      30.03S
GREENCASTLE +  CLOUDY    61  54  77 CALM      30.04S
LAFAYETTE      CLEAR     61  58  90 CALM      30.02S
TERRE HAUTE    CLEAR     61  57  87 CALM      30.02R

$$

INZ030>032-037>040-046>048-054>057-064-065-251100-
CENTRAL INDIANA

CITY           SKY/WX    TMP DP  RH WIND       PRES   REMARKS
CP ATTERBURY + PTCLDY    55  54  94 CALM      30.04S
FISHERS *+     PTCLDY    59  59 100 CALM      30.04S
FRANKFORT +    CLOUDY    59  57  93 CALM      30.05S
GREENWOOD *+   PTCLDY    64  61  91 CALM      30.04S
INDIANAPOLIS   PTCLDY    67  57  70 CALM      30.03S
-EAGLE CREEK   PTCLDY    64  56  75 CALM      30.03S
KOKOMO +       PTCLDY    60  57  89 CALM      30.05
MARION +       PTCLDY    57  54  88 CALM      30.05S
MT COMFORT *+  PTCLDY    55  54  94 CALM      30.05R
SHELBYVILLE    PTCLDY    59  54  83 CALM      30.03S
ZIONSVILLE +     N/A     56  56  97 CALM      30.05S

$$

INZ033-034-041-042-049-050-058-059-251100-
EAST CENTRAL INDIANA

CITY           SKY/WX    TMP DP  RH WIND       PRES   REMARKS
MUNCIE         PTCLDY    58  55  90 CALM      30.05S
RICHMOND +     PTCLDY    59  55  88 E3        30.07S FOG

$$

INZ060-061-067>069-081>083-085>088-251100-
SOUTHWEST INDIANA

CITY           SKY/WX    TMP DP  RH WIND       PRES   REMARKS
EVANSVILLE     CLEAR     68  66  93 CALM      30.00F
HUNTINGBURG +  PTCLDY    65  64  97 CALM      30.02S
WASHINGTON +   PTCLDY    62  60  94 CALM      30.01S

$$

INZ062-063-066-070>080-084-089>092-251100-
SOUTH CENTRAL AND SOUTHEAST INDIANA

CITY           SKY/WX    TMP DP  RH WIND       PRES   REMARKS
BEDFORD +      PTCLDY    61  57  88 CALM      30.02S
BLOOMINGTON    MOCLDY    59  55  87 CALM      30.03S
MADISON *+     PTCLDY    61  59  94 CALM      30.05S
NORTH VERNON + PTCLDY    57  57 100 NE3       30.04S
SEYMOUR +      PTCLDY    59  59 100 CALM      30.03R

$$





USA.gov is the U.S. government's official web portal to all federal, state and local government web resources and services.